Regional Weather Roundup
Issued by NWS Goodland, KS

Home | Current Version | Previous Version | Text Only | Print | Product List | Glossary Off
Versions: 1 2 3 4 5 6 7 8 9 10 11 12 13 14 15 16 17 18 19 20 21 22 23 24 25 26 27 28 29 30 31 32 33 34 35 36 37 38 39 40 41 42 43 44 45 46 47 48 49 50

000
ASUS43 KGLD 260759
RWRGLD

GOODLAND FORECAST AREA HOURLY WEATHER ROUNDUP
NATIONAL WEATHER SERVICE GOODLAND KS
200 AM MDT MON SEP 26 2016

...OFFICIAL OBSERVATIONS...

CITY           SKY/WX    TMP DP  RH WIND       PRES   REMARKS
GOODLAND KS    CLEAR     43  35  73 W6        30.40S
HILL CITY KS   CLEAR     42  34  73 W7        30.37R
IMPERIAL NEB   CLEAR     44  34  67 NW3       30.39S
MCCOOK NEB     CLEAR     38  31  76 SW5       30.37S
AKRON CO       CLEAR     46  31  55 S9        30.42S
BURLINGTON CO  CLEAR     42  35  76 W8        30.42F
LIMON CO       CLEAR     31  23  72 N6        30.47F
$$

...UNOFFICIAL OBSERVATIONS...

CITY           SKY/WX    TMP DP  RH WIND       PRES   REMARKS
LENORA KS        N/A     48  32  54 MISG        N/A
SHARON SPRINGS   N/A     44  34  69 N5          N/A
KIT CARSON CO    N/A     40  34  78 CALM        N/A
$$




USA.gov is the U.S. government's official web portal to all federal, state and local government web resources and services.